Regional Weather Roundup
Issued by NWS

Home | Current Version | Previous Version | Graphics & Text | Print | Product List | Glossary On
Versions: 1 2 3 4 5 6 7 8 9 10 11 12 13 14 15 16 17 18 19 20 21 22 23 24 25 26 27
000
ASUS45 KTFX 240910
RWRMT
MONTANA REGIONAL WEATHER ROUNDUP
NATIONAL WEATHER SERVICE GREAT FALLS MT
300 AM MDT WED AUG 24 2016

NOTE: "FAIR" INDICATES FEW OR NO CLOUDS BELOW 12000 FEET WITH NO
SIGNIFICANT WEATHER AND/OR OBSTRUCTIONS TO VISIBILITY.

MTZ001>007-043-241000-
WEST OF THE DIVIDE

CITY           SKY/WX    TMP DP  RH WIND       PRES   REMARKS
KALISPELL      CLOUDY    57  43  59 N18       30.23R
MISSOULA       PTCLDY    52  45  77 W5        30.23S
BUTTE          CLEAR     41  29  62 CALM      30.31R
MULLAN PASS    CLEAR     49  35  58 VRB5      30.30F
DEER LODGE       N/A     52  39  62 N5        30.32R
EUREKA           N/A     52  43  71 SE3       30.26R
HAMILTON         N/A     48  37  66 S3        30.23S
LIBBY            N/A     52  43  71 CALM      30.25R
PLAINS           N/A     53  49  86 CALM      30.22R
$$

MTZ008-052>055-241000-
SOUTHWEST MONTANA

CITY           SKY/WX    TMP DP  RH WIND       PRES   REMARKS
BOZEMAN        CLEAR     47  39  74 S7        30.27S
DILLON         CLEAR     45  34  65 E7        30.25R
W YELLOWSTONE  MOCLDY    32  18  55 CALM      30.30S
ENNIS          CLEAR     52  37  58 NE7G13    30.32R
THREE FORKS      N/A     49  39  68 CALM      30.24S
TWIN BRIDGES     N/A     53  35  50 N13       30.20F
$$

MTZ009-010-012-014-046-048-049-054-241000-
EAST SLOPES AND CENTRAL MONTANA

CITY           SKY/WX    TMP DP  RH WIND       PRES   REMARKS
CUT BANK       CLOUDY    50  44  80 NW15      30.28S
GREAT FALLS    CLOUDY    53  45  74 N5        30.30R
MALMSTROM AFB  CLOUDY    54  47  79 MISG      30.28R
HELENA         CLOUDY    57  42  57 N8        30.28R
CHOTEAU          N/A     54  45  71 NW6       30.31R
$$

MTZ011-013-016-021-045-047-050-051-241000-
NORTH CENTRAL MONTANA

CITY           SKY/WX    TMP DP  RH WIND       PRES   REMARKS
HAVRE          CLOUDY    57  50  77 W12       30.18S
LEWISTOWN      CLOUDY    55  46  71 W9        30.25S
N BAR RANCH    CLOUDY    54  45  71 W17G24    30.25R
CHINOOK          N/A     57  52  82 W15G21    30.15S
$$

MTZ017>020-022>027-061-062-241000-
NORTHEAST MONTANA

CITY           SKY/WX    TMP DP  RH WIND       PRES   REMARKS
GLASGOW        MOCLDY    55  49  80 W21G31    30.04S
JORDAN           N/A     58  48  69 W13       30.12R
SIDNEY         CLEAR     58  48  69 W17       29.99R
WOLF POINT     CLEAR     57  50  77 W12       30.02R
POPLAR           N/A     57  48  72 W13       30.00R
SCOBEY           N/A     56  45  66 W15       29.96R
$$

MTZ028>42-056>058-241000-
SOUTHCENTRAL AND SOUTHEAST MONTANA

CITY           SKY/WX    TMP DP  RH WIND       PRES   REMARKS
BAKER          CLEAR     54  45  71 W13       30.09S
BILLINGS       CLEAR     55  42  61 NW10      30.22F
LIVINGSTON     CLEAR     48  38  68 W6        30.28R
MILES CITY     CLEAR     56  44  64 NW13      30.11F
EKALAKA          N/A     52  42  68 W8        30.10R
FORSYTH          N/A     57  46  67 W7        30.15R
LAUREL           N/A     49  39  68 W2        30.20S
ROUNDUP          N/A     58  43  57 NW9       30.11S
$$

REGIONAL REPORTS...DAKOTAS

CITY           SKY/WX    TMP DP  RH WIND       PRES   REMARKS
WILLISTON      PTCLDY    58  47  66 W21G29    29.94F
MINOT          CLEAR     60  49  66 W15       29.87R
DICKINSON      CLEAR     55  47  74 W16       30.00R
CROSBY           N/A     54  50  87 W15       29.91S
BISMARCK       CLEAR     58  47  66 W10       29.96R
GRAND FORKS    CLEAR     58  53  84 W6        29.80R
FARGO          CLEAR     61  53  75 W6        29.83R
BUFFALO SD       N/A     55  44  66 W15       30.03S
RAPID CITY     CLOUDY    60  33  36 N15       30.11R
$$

REGIONAL REPORTS...WYOMING/IDAHO/WASHINGTON

CITY           SKY/WX    TMP DP  RH WIND       PRES   REMARKS
GILLETTE       CLEAR     52  40  63 NW7       30.20R
SHERIDAN       CLEAR     54  42  64 W9        30.22S
BUFFALO WY     CLEAR     53  39  59 N10       30.24S
CODY           CLEAR     52  37  58 N6        30.27R
YELLOWSTONE LA   N/A     39  23  52 CALM      30.35R
IDAHO FALLS    CLEAR     44  31  60 CALM      30.16S
SALMON         CLEAR    N/A N/A N/A MISG        N/A
BOISE          CLEAR     56  37  49 S3        30.09S
SPOKANE        MOCLDY    62  42  47 NE7       30.17S
$$

REGIONAL REPORTS...ALBERTA

CITY           SKY/WX    TMP DP  RH WIND       PRES   REMARKS
EDMONTON       PTCLDY    52  46  82 W8        30.24R
CALGARY        PTCLDY    48  43  81 N8        30.31R
LETHBRIDGE     MOCLDY    52  46  82 W15       30.28R
MEDICINE HAT   CLOUDY    55  48  76 NW13      30.20R
WATERTON GATE    N/A     48  46  93 CALM        N/A
CARDSTON         N/A     50  43  76 W2          N/A
MILK RIVER       N/A     52  46  82 NW17G23     N/A
$$

REGIONAL REPORTS...SASKATCHEWAN

CITY           SKY/WX    TMP DP  RH WIND       PRES   REMARKS
SWIFT CURRENT  CLOUDY    48  48 100 NW21G29   30.00S FOG
REGINA         CLOUDY    54  54 100 W17G23    29.85R
SASKATOON      LGT RAIN  54  54 100 N17G23    29.96R
CYPRESS HILLS    N/A     45  41  87 NW12G23     N/A
VAL MARIE        N/A     54  46  76 NW16G23     N/A
ROCKGLEN         N/A     50  48  93 NW16G24     N/A
ASSINIBOIA       N/A     50  48  93 W10         N/A
$$




USA.gov is the U.S. government's official web portal to all federal, state and local government web resources and services.